IMK - Bhop Stats - Record Database

Afraidofthebomb Records (445)

Run ID SteamID Name Map Style / Track Time Jumps Strafes Sync Points Date (YYYY-MM-DD)
24586 184133264 Afraidofthebomb bhop_nox Low Grav / Main 24.828s 16 56 92.32% 128.91 2019-08-07 18:06:48
24587 184133264 Afraidofthebomb bhop_nox Half-Sideways / Main 51.117s 66 84 96.13% 168.75 2019-08-07 18:19:34
24588 184133264 Afraidofthebomb bhop_nox Normal / Main 31.320s 41 70 92.62% 145.71 2019-08-07 19:14:04
24906 184133264 Afraidofthebomb bhop_bumpy_ride Normal / Main 57.867s 85 121 86.72% 188.29 2019-08-10 06:51:32
25213 184133264 Afraidofthebomb bhop_atom Normal / Main 22.297s 31 86 90.62% 69.04 2019-08-11 16:11:12
25218 184133264 Afraidofthebomb bhop_atom Half-Sideways / Bonus 11.672s 16 27 97.27% 18.50 2019-08-11 16:14:20
25222 184133264 Afraidofthebomb bhop_scape Half-Sideways / Main 53.258s 54 68 97.08% 168.91 2019-08-11 16:47:18
25585 184133264 Afraidofthebomb bhop_jib_jib_csgo Low Grav / Main 10.773s 9 39 87.10% 122.51 2019-08-15 02:31:48
27791 184133264 Afraidofthebomb bhop_despair Low Grav / Main 29.648s 19 107 91.20% 62.41 2019-08-31 07:03:53
27807 184133264 Afraidofthebomb bhop_despair Scroll / Main 49.852s 63 161 90.86% 90.43 2019-08-31 07:23:44
27809 184133264 Afraidofthebomb bhop_alvo2 Low Grav / Bonus 43.500s 20 72 87.74% 16.03 2019-08-31 07:54:51
27855 184133264 Afraidofthebomb bhop_remnants Normal / Main 17.945s 25 41 93.24% 73.81 2019-08-31 13:17:50
27964 184133264 Afraidofthebomb bhop_classic_comp_v1 Normal / Main 58.406s 96 115 90.12% 78.89 2019-09-01 06:25:03
27977 184133264 Afraidofthebomb bhop_opl Normal / Main 21.867s 18 49 93.74% 160.87 2019-09-01 07:44:18
27982 184133264 Afraidofthebomb bhop_manpoo Scroll / Main 42.805s 48 102 93.34% 92.45 2019-09-01 07:58:18
27991 184133264 Afraidofthebomb bhop_degree Low Grav / Main 36.734s 16 79 93.37% 129.58 2019-09-01 11:14:17
28061 184133264 Afraidofthebomb bhop_1derland Normal / Main 18.711s 27 64 89.37% 75.31 2019-09-01 11:40:58
28140 184133264 Afraidofthebomb bhop_mapsuck Scroll / Main 22.297s 26 74 92.20% 89.39 2019-09-02 05:43:35
28142 184133264 Afraidofthebomb bhop_mapsuck Half-Sideways / Main 22.422s 27 32 96.72% 84.14 2019-09-02 05:50:11
28143 184133264 Afraidofthebomb bhop_mapsuck Normal / Main 19.711s 23 59 92.83% 63.34 2019-09-02 05:55:19
28343 184133264 Afraidofthebomb bhop_areaportal_v1 Low Grav / Main 08:27.289m 232 850 93.11% 283.75 2019-09-03 11:33:32
28344 184133264 Afraidofthebomb bhop_classicrainbowaux Low Grav / Main 40.609s 15 99 91.41% 119.62 2019-09-03 11:45:27
28427 184133264 Afraidofthebomb bhop_medium_v1 Low Grav / Main 48.680s 33 111 93.72% 66.51 2019-09-04 03:00:59
28434 184133264 Afraidofthebomb bhop_anyyy Low Grav / Main 17.117s 13 64 92.36% 49.48 2019-09-04 03:26:46
28439 184133264 Afraidofthebomb bhop_anyyy Half-Sideways / Main 26.242s 37 39 98.04% 69.24 2019-09-04 03:29:01
28442 184133264 Afraidofthebomb bhop_safehaven Half-Sideways / Main 50.594s 68 82 96.86% 86.21 2019-09-04 03:45:41
28444 184133264 Afraidofthebomb bhop_temporal2 Low Grav / Main 22.273s 16 54 94.19% 128.76 2019-09-04 03:55:34
28446 184133264 Afraidofthebomb bhop_slope_v2 Low Grav / Main 15.625s 7 46 93.26% 58.12 2019-09-04 03:58:24
28449 184133264 Afraidofthebomb bhop_slope_v2 Normal / Main 13.109s 11 43 91.59% 72.35 2019-09-04 04:08:14
28453 184133264 Afraidofthebomb bhop_slope_v2 Slow Motion / Main 12.160s 10 67 94.43% 62.74 2019-09-04 04:17:04
28455 184133264 Afraidofthebomb bhop_flavum Low Grav / Main 20.602s 14 54 93.19% 128.67 2019-09-04 04:32:29
28456 184133264 Afraidofthebomb bhop_blueshit_csgo Low Grav / Main 20.039s 13 64 91.50% 61.31 2019-09-04 04:34:21
28462 184133264 Afraidofthebomb bhop_blueshit_csgo Scroll / Main 26.492s 33 88 89.33% 92.12 2019-09-04 04:45:41
28466 184133264 Afraidofthebomb bhop_blueshit_csgo Half-Sideways / Main 34.398s 43 48 97.35% 69.55 2019-09-04 04:48:28
28674 184133264 Afraidofthebomb bhop_zygos Low Grav / Main 27.953s 19 83 93.73% 129.08 2019-09-05 07:03:00
28696 184133264 Afraidofthebomb bhop_slayer_final Low Grav / Main 17.922s 11 59 93.50% 59.98 2019-09-05 07:30:07
28717 184133264 Afraidofthebomb bhop_slayer_final Half-Sideways / Main 23.734s 27 35 97.00% 84.24 2019-09-05 07:35:51
28725 184133264 Afraidofthebomb bhop_slayer_final Scroll / Main 21.938s 26 94 90.02% 91.76 2019-09-05 07:43:56
28739 184133264 Afraidofthebomb bhop_slayer_final Low Grav / Bonus 17.461s 11 56 90.38% 15.28 2019-09-05 07:56:54
28753 184133264 Afraidofthebomb bhop_jump_academy_csgo Low Grav / Main 18.445s 11 56 93.98% 57.42 2019-09-05 08:05:33
28762 184133264 Afraidofthebomb bhop_jump_academy_csgo Normal / Main 17.969s 18 56 90.71% 66.09 2019-09-05 08:13:16
28766 184133264 Afraidofthebomb bhop_jump_academy_csgo Half-Sideways / Main 20.086s 21 22 97.97% 81.85 2019-09-05 08:17:43
28775 184133264 Afraidofthebomb bhop_tango_final2 Normal / Main 14.797s 20 48 92.31% 133.75 2019-09-05 08:24:22
28784 184133264 Afraidofthebomb bhop_tango_final2 Low Grav / Main 14.367s 10 60 91.65% 121.51 2019-09-05 08:35:09
29424 184133264 Afraidofthebomb bhop_hahalol Normal / Main 19.133s 24 44 94.52% 66.89 2019-09-07 12:34:41
29436 184133264 Afraidofthebomb bhop_hahalol Low Grav / Bonus 9.898s 4 33 92.26% 15.50 2019-09-07 12:53:04
29427 184133264 Afraidofthebomb bhop_hahalol Low Grav / Main 17.977s 11 61 93.83% 64.08 2019-09-07 13:17:21
29458 184133264 Afraidofthebomb bhop_lego Normal / Main 11.836s 15 53 90.40% 70.13 2019-09-07 13:47:26
29475 184133264 Afraidofthebomb bhop_easy_csgo Half-Sideways / Main 01:11.492m 94 91 97.37% 112.75 2019-09-07 14:41:13
29481 184133264 Afraidofthebomb bhop_easy_csgo Normal / Bonus 12.500s 16 28 93.38% 15.98 2019-09-07 14:59:09
29482 184133264 Afraidofthebomb bhop_internetclub Half-Sideways / Main 53.352s 68 69 97.80% 168.91 2019-09-07 15:10:24
29484 184133264 Afraidofthebomb bhop_internetclub Half-Sideways / Bonus 14.172s 19 21 94.92% 20.88 2019-09-07 15:16:37
29488 184133264 Afraidofthebomb bhop_internetclub Low Grav / Bonus 11.750s 8 53 89.26% 16.05 2019-09-07 15:44:52
29508 184133264 Afraidofthebomb bhop_masket Normal / Main 13.797s 17 43 91.12% 62.85 2019-09-07 16:28:08
29513 184133264 Afraidofthebomb bhop_masket Slow Motion / Main 9.961s 14 55 93.17% 68.02 2019-09-07 16:38:13
29517 184133264 Afraidofthebomb bhop_masket Low Grav / Main 12.492s 10 46 90.00% 58.19 2019-09-07 16:39:34
29519 184133264 Afraidofthebomb bhop_masket Half-Sideways / Main 27.109s 33 35 98.21% 84.49 2019-09-07 16:43:44
29521 184133264 Afraidofthebomb bhop_gridust_final Low Grav / Main 3.633s 3 17 85.95% 62.85 2019-09-07 16:46:33
29525 184133264 Afraidofthebomb bhop_gridust_final Normal / Main 11.531s 16 38 92.97% 64.58 2019-09-07 16:51:21
29529 184133264 Afraidofthebomb bhop_gridust_final Half-Sideways / Main 12.172s 17 17 98.09% 83.39 2019-09-07 16:57:00
29532 184133264 Afraidofthebomb bhop_gridust_final Scroll / Main 13.000s 18 38 89.91% 91.04 2019-09-07 17:07:28
29536 184133264 Afraidofthebomb bhop_gridust_final Slow Motion / Main 9.289s 13 62 91.96% 65.50 2019-09-07 17:14:10
29540 184133264 Afraidofthebomb bhop_castletown Slow Motion / Main 10.609s 13 60 93.61% 68.06 2019-09-07 17:23:48
29542 184133264 Afraidofthebomb bhop_castletown Normal / Main 14.672s 19 40 93.62% 62.40 2019-09-07 17:27:32
29544 184133264 Afraidofthebomb bhop_classic_comp_v1 Low Grav / Main 35.328s 50 81 88.67% 55.31 2019-09-07 17:57:19
29849 184133264 Afraidofthebomb bhop_fak_idk Normal / Main 30.023s 32 68 93.85% 130.64 2019-09-08 21:54:38
29850 184133264 Afraidofthebomb bhop_fak_idk Half-Sideways / Main 38.641s 43 39 97.88% 151.06 2019-09-08 21:59:12
29851 184133264 Afraidofthebomb bhop_edge Low Grav / Main 02:45.297m 104 330 93.12% 264.37 2019-09-08 22:35:25
29853 184133264 Afraidofthebomb bhop_noobhop_exg Normal / Main 31.883s 43 81 92.75% 67.49 2019-09-08 23:37:37
29854 184133264 Afraidofthebomb bhop_noobhop_exg Low Grav / Main 29.344s 20 93 93.24% 64.61 2019-09-08 23:43:18
30018 184133264 Afraidofthebomb bhop_qmpa Low Grav / Main 30.617s 15 84 94.05% 129.10 2019-09-09 19:25:13
30020 184133264 Afraidofthebomb bhop_remnants Low Grav / Main 17.250s 12 38 94.69% 64.73 2019-09-09 21:28:12
30021 184133264 Afraidofthebomb bhop_sandtrap3 Low Grav / Main 01:05.906m 19 62 96.79% 194.16 2019-09-09 21:45:05
30022 184133264 Afraidofthebomb bhop_sandtrap3 Low Grav / Bonus 16.133s 4 28 92.90% 15.08 2019-09-09 22:13:46
30023 184133264 Afraidofthebomb bhop_japan Low Grav / Main 01:46.789m 68 176 93.11% 185.53 2019-09-09 22:26:50
30031 184133264 Afraidofthebomb bhop_alt_paskin Low Grav / Main 14.625s 10 44 93.20% 56.52 2019-09-09 23:29:54
30036 184133264 Afraidofthebomb bhop_alt_paskin Normal / Main 15.781s 22 51 90.96% 65.38 2019-09-09 23:47:01
28008 184133264 Afraidofthebomb bhop_jethro_blue Normal / Main 14.688s 18 43 91.46% 137.89 2019-09-09 23:49:19
30039 184133264 Afraidofthebomb bhop_jethro_blue Slow Motion / Main 10.625s 11 59 90.23% 133.64 2019-09-10 00:13:23
28001 184133264 Afraidofthebomb bhop_jethro_blue Low Grav / Main 12.656s 6 45 91.47% 125.83 2019-09-10 00:36:54
30050 184133264 Afraidofthebomb bhop_quake_final Slow Motion / Main 8.902s 11 42 94.16% 67.96 2019-09-10 01:07:28
30044 184133264 Afraidofthebomb bhop_quake_final Low Grav / Main 9.453s 6 28 90.05% 60.43 2019-09-10 01:15:04
30232 184133264 Afraidofthebomb bhop_moonlight_csgo Normal / Main 17.078s 23 34 94.54% 68.73 2019-09-10 14:35:06
30235 184133264 Afraidofthebomb bhop_umbra_csgo_v2 Low Grav / Bonus 21.961s 4 24 93.65% 14.87 2019-09-10 15:03:12
30239 184133264 Afraidofthebomb bhop_daryl Half-Sideways / Main 24.563s 33 34 98.50% 83.56 2019-09-10 15:43:19
30243 184133264 Afraidofthebomb bhop_daryl Normal / Main 19.180s 26 61 92.31% 69.34 2019-09-10 15:48:37
30241 184133264 Afraidofthebomb bhop_daryl Low Grav / Main 19.141s 13 67 91.53% 60.93 2019-09-10 15:50:41
30377 184133264 Afraidofthebomb bhop_liquor_spat Low Grav / Main 18.203s 12 40 93.90% 63.96 2019-09-11 18:28:59
30675 184133264 Afraidofthebomb bhop_suddenfire_csgo Half-Sideways / Bonus 3.984s 1 3 86.56% 20.70 2019-09-12 13:23:22
30676 184133264 Afraidofthebomb bhop_suddenfire_csgo Normal / Bonus 3.727s 0 7 92.53% 18.06 2019-09-12 13:25:56
30677 184133264 Afraidofthebomb bhop_suddenfire_csgo Low Grav / Main 31.859s 18 76 92.98% 124.65 2019-09-12 13:31:15
30679 184133264 Afraidofthebomb bhop_suddenfire_csgo Low Grav / Bonus 4.953s 0 8 89.55% 15.30 2019-09-12 13:31:25
30709 184133264 Afraidofthebomb bhop_ambience Low Grav / Main 19.141s 13 60 93.41% 62.25 2019-09-12 14:41:39
30713 184133264 Afraidofthebomb bhop_ambience Normal / Bonus 10.273s 14 39 89.11% 17.48 2019-09-12 14:45:05
30719 184133264 Afraidofthebomb bhop_aiko Low Grav / Main 13.164s 9 49 86.76% 93.24 2019-09-12 14:54:25
30726 184133264 Afraidofthebomb bhop_aiko Scroll / Main 36.695s 48 101 89.46% 169.46 2019-09-12 15:04:07
30727 184133264 Afraidofthebomb bhop_aiko 400 Vel / Main 45.320s 59 124 91.42% 191.28 2019-09-12 15:06:07
30728 184133264 Afraidofthebomb bhop_aiko Normal / Main 26.164s 34 59 91.82% 126.86 2019-09-12 15:10:17
30742 184133264 Afraidofthebomb bhop_aow_whiteout Low Grav / Main 26.039s 18 86 90.48% 63.69 2019-09-12 17:52:37
30744 184133264 Afraidofthebomb bhop_aow_whiteout Half-Sideways / Main 36.680s 51 41 97.10% 85.19 2019-09-12 18:05:27